{"data":{"norad_id":39241,"intl_designator":"2013-046C","name":"YAOGAN-17 01C","alt_names":[],"object_type":"PAYLOAD","status":"ACTIVE","operator":null,"country":"PRC","launch_date":"2013-09-01","launch_site_code":"JSC","launch_vehicle":null,"mission":null,"orbit_class":"UNKNOWN","rcs_meters":2.744,"size_class":null,"mass_kg":null,"dimensions":null,"purposes":[],"wikipedia_slug":null,"has_3d_model":false,"image_url":null,"decayed_at":null,"tle_current":{"epoch":"2026-09-20T05:32:36.726432Z","epoch_age_seconds":56875,"freshness":"FRESH","line1":"1 39241U 13046C   26263.23098063 -.00000076  00000+0  14214-4 0  9992","line2":"2 39241  63.3849 204.4791 0435589  11.9508 349.1463 13.45486429641163","mean_motion":13.45486429,"eccentricity":0.0435589,"inclination_deg":63.3849,"raan_deg":204.4791,"arg_perigee_deg":11.9508,"mean_anomaly_deg":349.1463,"bstar":1.4214e-5,"rev_number":64116,"period_min":107.02449084308,"perigee_km":763.65488420529,"apogee_km":1414.167704085,"semimajor_km":7467.0482941451,"source":"CELESTRAK","updated_at":"2026-09-20T09:00:13.919936Z"}}}